Voltar ao catálogo

COSMOS 2251 DEB

AtivoLEO
NORAD 35012·DEBRIS·🇷🇺 Russia

Lançado Jun 16, 1993 de Plesetsk Cosmodrome

Loading…

Próximas Passagens (próximas 24 horas)

TLE

AtualizadoSource: Space-Track

Época: Sep 14, 2026, 10:01 UTC

1 35012U 93036AFZ 26257.41782669  .00000212  00000-0  65281-4 0  9998
2 35012  74.0211 317.1008 0079818  28.9502 331.6047 14.45782398915456

Acompanhe COSMOS 2251 DEB em tempo real com AllMySat

Download on the App Store